Regional Weather Roundup
Issued by NWS

Home | Current Version | Previous Version | Text Only | Print | Product List | Glossary On
Versions: 1 2 3 4 5 6 7 8 9 10 11 12 13 14 15 16 17 18 19 20 21 22 23 24 25 26 27 28 29 30 31 32 33 34 35 36 37 38 39 40 41 42 43 44 45 46 47 48 49 50
000
ASUS44 KLUB 260810
RWRTX
WEST TEXAS WEATHER ROUNDUP
NATIONAL WEATHER SERVICE LUBBOCK TX
300 AM CDT WED APR 26 2017

NOTE: "FAIR" INDICATES FEW OR NO CLOUDS BELOW 12,000 FEET WITH NO
SIGNIFICANT WEATHER AND/OR OBSTRUCTIONS TO VISIBILITY.

TXZ004-006>008-010-012-014-016-OKZ002-260900-
TEXAS PANHANDLE/OKLAHOMA PANHANDLE

CITY           SKY/WX    TMP DP  RH WIND       PRES   REMARKS
AMARILLO       CLOUDY    49  48  97 N9        29.63R FOG
BORGER         CLOUDY    51  50  96 N7        29.64R
CANADIAN       CLOUDY    51  49  94 NE9       29.62R
DALHART        LGT RAIN  47  45  93 N12       29.67R
DUMAS          CLOUDY    47  44  90 NE10      29.66R
GUYMON         CLOUDY    46  43  89 N21       29.64R
HEREFORD       MOCLDY    49  47  93 N15G23    29.64R
PAMPA          CLOUDY    49  47  93 NE20      29.61R
PERRYTON       CLOUDY    48  46  90 NE16G24   29.62S
$$

TXZ026-029-035-045-048-260900-
SOUTHERN PANHANDLE/SOUTH PLAINS/ROLLING PLAINS

CITY           SKY/WX    TMP DP  RH WIND       PRES   REMARKS
CHILDRESS      MOCLDY    57  48  72 N16G23    29.60R
SEMINOLE       CLEAR     57  39  50 NW9       29.66R
LUBBOCK        CLOUDY    60  41  49 NW9       29.60R
PLAINVIEW      CLOUDY    51  47  87 NE13G20   29.59R
SNYDER         CLOUDY   N/A N/A N/A NW17G23   29.58S
$$

TXZ052-054-060>062-072-078-127-140-154-169-260900-
PERMIAN BASIN/CONCHO VALLEY/BIG COUNTRY/EDWARDS PLATEAU

CITY           SKY/WX    TMP DP  RH WIND       PRES   REMARKS
ABILENE        CLOUDY    71  44  37 CALM      29.48R
BIG SPRING     CLOUDY    67  39  36 NW16G22   29.63R
BROWNWOOD      PTCLDY    70  64  83 SE6       29.47F
JUNCTION       CLEAR     73  69  87 S13       29.44F
MIDLAND        CLOUDY    66  39  37 N17G24    29.64R
ODESSA         MOCLDY    64  39  39 N13       29.65R
SAN ANGELO     MOCLDY    77  49  37 SW13      29.47S
SONORA         CLEAR     70  55  60 CALM      29.55F
SWEETWATER     CLOUDY    72  39  30 NW16G23   29.55R
WINK           CLEAR     65  38  36 NW21G31   29.64R
$$

TXZ055-058-074-075-080-082-260900-
FAR WEST/SOUTHWEST MOUNTAINS/TRANS PECOS

CITY           SKY/WX    TMP DP  RH WIND       PRES   REMARKS
ALPINE         PTCLDY    70  38  31 W10       29.79S
DRYDEN           N/A     80  40  23 NW14      29.53R
EL PASO        PTCLDY    65  30  27 NW14G23   29.78R
FORT STOCKTON  PTCLDY    75  36  24 NW15G26   29.64R
GUADALUPE PASS CLOUDY    59  32  36 W28G38    29.77R
MARFA          PTCLDY    67  39  35 NW22G30   29.78R
PECOS          CLOUDY    67  40  37 N18G25    29.68R
PRESIDIO       FAIR      78  39  24 W15G22    29.67R
$$

TXZ014-016-019-021>030-083-260900
TEXAS TECH WEST TEXAS MESONET/TEXAS PANHANDLE/NORTHERN SOUTH PLAINS

CITY           SKY/WX    TMP DP  RH WIND       PRES   REMARKS
ABERNATHY 5ENE   N/A     57  46  65 N8        29.61R
AMARILLO 9NNE    N/A     49  49 100 NE12      29.62F
AMARILLO 7SSE    N/A     49  47  92 N12       29.64R
AMHERST 1NE      N/A     57  39  51 NW8       29.61S
BOOTLEG 11WNW    N/A     46  43  89 NE15      29.64S
CANADIAN 6E      N/A     49  47  93 N13       29.61R
CAPROCK CYN SP   N/A     53  50  88 NE6       29.63R
CHILDRESS 2NNE   N/A     55  48  80 N14       29.59F
CLARENDON 2WSW   N/A     51  47  87 NE10      29.60R
CLAUDE 12SW      N/A     48  47  94 N17       29.60R
DIMMITT 2NE      N/A     48  46  93 NW12      29.62S
FLOYDADA 2NNE    N/A     52  49  89 NE9       29.60R
FRIONA 2NE       N/A     48  45  90 N10       29.64S
GOODLETT 3W      N/A     56  49  77 N13       29.56F
HART 3N          N/A     50  48  93 NE6       29.61S
HEREFORD 2NW     N/A     47  44  88 N10       29.62F
MCLEAN 1E        N/A     49  46  92 NE16      29.60R
MEMPHIS 1NE      N/A     53  50  87 NE15      29.57F
MULESHOE 2SSW    N/A     51  47  87 NW7       29.62R
OLTON 6S         N/A     51  47  87 N9        29.60S
PALO DURO SP     N/A     49  46  90 N9        29.64R
PAMPA 2E         N/A     47  47  97 N16       29.60R
PLAINVIEW 1S     N/A     52  49  89 N12       29.60R
SILVERTON 7ESE   N/A     51  48  92 NE12      29.60R
TULIA 2ENE       N/A     49  48  96 NE5       29.62R
TURKEY 2WSW      N/A     54  51  87 NW10      29.61R
UMBARGER 3NNE    N/A     48  46  91 N12       29.64R
$$

TXZ033>036-039>041-045>048-260900
TEXAS TECH WEST TEXAS MESONET/SOUTH PLAINS

CITY           SKY/WX    TMP DP  RH WIND       PRES   REMARKS
AIKEN 3WSW       N/A     56  47  72 E12       29.61R
ANDREWS 2NE      N/A     60  38  44 NW16      29.65R
ANTON 6SSW       N/A     58  41  52 W7        29.60R
BROWNFIELD 2S    N/A     60  38  43 NW10      29.62R
DENVR CTY 7WNW   N/A     54  35  48 W14       29.66S
GAIL 2ESE        N/A     65  40  40 NW7       29.59S
LAMESA 2SE       N/A     59  39  46 NW5       29.64R
LUBBOCK 3WNW     N/A     61  38  43 NW3       29.61R
MORTON 1ENE      N/A     58  34  39 W14       29.61F
ODONNELL 1N      N/A     60  36  41 N6        29.62S
PLAINS 3N        N/A     55  37  49 W13       29.65R
RALLS 1SE        N/A     60  43  51 NE7       29.61R
REESE CENTER     N/A     58  39  50 NW8       29.60R
SEAGRAVES 1SW    N/A     56  38  51 W14       29.64R
SEMINOLE 2NNE    N/A     58  37  47 W15       29.65R
SLATON 2NE       N/A     59  41  50 CALM      29.61S
SNYDER 3E        N/A     69  40  35 NW20      29.55R
SUNDOWN 8SW      N/A     53  38  57 W10       29.63R
TAHOKA 3NNE      N/A     60  38  44 N5        29.62R
WOLFFORTH 6SSW   N/A     60  37  42 NW12      29.61R
$$

TXZ031-032-036>038-042>044-260900-
TEXAS TECH WEST TEXAS MESONET/ROLLING PLAINS

CITY           SKY/WX    TMP DP  RH WIND       PRES   REMARKS
ASPERMONT 3NE    N/A     63  51  64 N23       29.54R
FLUVANNA 3WNW    N/A     66  38  36 N15       29.58F
GRAHAM 5SSW      N/A     62  40  43 N8        29.60F
GUTHRIE 10WSW    N/A     59  50  73 N6        29.55S
HASKELL 1NW      N/A     68  52  56 NW25      29.50R
JAYTON 1SSE      N/A     62  53  72 N10       29.55S
KNOX CITY 3NW    N/A     62  50  64 N18       29.54R
LK A HENRY 1NW   N/A     67  40  38 N8        29.57F
NORTHFIELD 1S    N/A     55  49  79 NE10      29.57F
ODELL 4ENE       N/A     58  51  79 NW23      29.56R
PADUCAH 10SW     N/A     56  50  79 N12       29.57F
POST 1NE         N/A     62  40  44 NW6       29.59S
RRING SPRGS 3N   N/A     53  49  89 N6        29.59F
SEYMOUR 3NW      N/A     64  54  70 NW28      29.50R
SPUR 1W          N/A     60  49  66 N8        29.56F
WEINERT 2NNE     N/A     64  53  67 NW18      29.52R
WHITE RVR 6NE    N/A     60  46  60 NE8       29.58S
$$

TXZ052-054-060>062-072-078-127-140-154-169-260900-
TEXAS TECH WEST TEXAS MESONET/PERMIAN BASIN/
CONCHO VALLEY/BIG COUNTRY/EDWARDS PLATEAU

CITY           SKY/WX    TMP DP  RH WIND       PRES   REMARKS
COYANOSA 2N      N/A     68  40  35 NW21      29.66R
JUNCTION 1SSW    N/A     72  68  87 W3        29.46S
MERTZON 3NNE     N/A     78  50  37 SW9       29.51R
SAN ANGELO 7NW   N/A     76  46  34 SW6       29.48R
STRLNG CT 4WSW   N/A     72  38  29 NW16      29.56R
ST LAWRNCE 5SW   N/A     69  39  33 NW22      29.61R
SWEETWATR 11SW   N/A     71  41  34 NW17      29.56R
WALL 1E          N/A     75  53  45 SW14      29.47S
$$

TXZ055-058-074-075-080-082-260900-
TEXAS TECH WEST TEXAS MESONET/FAR WEST/SOUTHWEST MOUNTAINS/TRANS PECOS

CITY           SKY/WX    TMP DP  RH WIND       PRES   REMARKS
PRSMN GAP BBNP   N/A     79  37  22 W5        29.62R
GUADLPE MTN NP   N/A     58  28  31 W6        29.78S
$$




USA.gov is the U.S. government's official web portal to all federal, state and local government web resources and services.